Location: Chakepay
(13.3931°S, 72.1925°W)
Time: 14:34:27
(UTC+00:00)

Cosmos 1933 Rocket - Pass Details

Date: 15 November 2019
Orbit: 606 x 631 km, 82.5° (Epoch: 04 December)

Event Time Altitude Azimuth Distance (km) Brightness Sun altitude
Exits shadow 00:32:20 39° 350° (N) 917 4.2 -22.7°
Maximum altitude 00:33:54 83° 267° (W) 626 3.5 -23.0°
Drops below altitude 10° 00:38:20 10° 178° (S) 1,995 6.4 -24.0°
Sets 00:40:35 0° 177° (S) 2,911 7.3 -24.5°
